Cape May, NJ

12:09 AM EST on December 04, 2016 (GMT -0500)
Cape May County

Weather History for KWWD - January, 2013

Change the Weather History Date:

Thursday, January 24, 2013

  Actual Average Record
Temperature  
Mean Temperature 20 °F -  
Max Temperature 24 °F 37 °F 60 °F (1999)
Min Temperature 17 °F 25 °F 8 °F (2011)
Degree Days  
Heating Degree Days 44    
Moisture  
Dew Point 2 °F    
Average Humidity 43    
Maximum Humidity 68    
Minimum Humidity 31    
Precipitation  
Precipitation 0.00 in - - ()
Sea Level Pressure  
Sea Level Pressure 30.28 in    
Wind  
Wind Speed 10 mph (NNW)    
Max Wind Speed 16 mph    
Max Gust Speed 28 mph    
Visibility 10 miles    
Events      
Averages and records for this station are not official NWS values.
T = Trace of Precipitation, MM = Missing Value Source: NWS Daily Summary

Daily Weather History Graph

Daily Weather History Graph

Search for Another Location

Airport or City:

Trip Planner

Search our weather history database for the weather conditions in past years. The results will help you decide how hot, cold, wet, or windy it might be!

Date:

Astronomy

Jan. 24, 2013 Rise Set
Actual Time 7:12 AM EST 5:11 PM EST
Civil Twilight 6:43 AM EST 5:40 PM EST
Nautical Twilight 6:11 AM EST 6:12 PM EST
Astronomical Twilight 5:39 AM EST 6:44 PM EST
Moon 3:12 PM EST (1/24) 5:07 AM EST (1/24)
Length of Visible Light 10h 57m
Length of Day
9h 59m
Waxing Gibbous, 94% of the Moon is Illuminated
Jan 24
Waxing Gibbous
Jan 26
Full
Feb 3
Last Quarter
Feb 10
New
Feb 17
First Quarter

Hourly Weather History & Observations

Time (EST) Temp. Windchill Dew Point Humidity Pressure Visibility Wind Dir Wind Speed Gust Speed Precip Events Conditions
12:15 AM 19.4 °F 11.5 °F -0.4 °F 42% 30.19 in 10.0 mi NE 5.8 mph - N/A   Overcast
12:35 AM 19.4 °F 10.4 °F -0.4 °F 42% 30.18 in 10.0 mi NE 6.9 mph - N/A   Overcast
12:55 AM 19.4 °F 12.8 °F -0.4 °F 42% 30.17 in 10.0 mi ENE 4.6 mph - N/A   Overcast
1:15 AM 19.4 °F 12.8 °F -0.4 °F 42% 30.17 in 10.0 mi ENE 4.6 mph - N/A   Overcast
1:35 AM 19.4 °F 10.4 °F -0.4 °F 42% 30.16 in 10.0 mi NE 6.9 mph - N/A   Overcast
1:55 AM 19.4 °F 8.6 °F -0.4 °F 42% 30.16 in 10.0 mi NNE 9.2 mph - N/A   Overcast
2:15 AM 19.4 °F 10.4 °F 1.4 °F 46% 30.16 in 10.0 mi NE 6.9 mph - N/A   Overcast
2:35 AM 19.4 °F 10.4 °F 3.2 °F 49% 30.15 in 10.0 mi NNE 6.9 mph - N/A   Overcast
2:55 AM 17.6 °F 7.3 °F 5.0 °F 58% 30.14 in 9.0 mi NNE 8.1 mph - N/A   Overcast
3:15 AM 17.6 °F 8.2 °F 6.8 °F 63% 30.12 in 6.0 mi NNE 6.9 mph - N/A   Overcast
3:35 AM 17.6 °F 8.2 °F 8.6 °F 68% 30.12 in 10.0 mi NNE 6.9 mph - N/A   Overcast
3:55 AM 17.6 °F 8.2 °F 8.6 °F 68% 30.12 in 9.0 mi NNE 6.9 mph - N/A   Overcast
4:15 AM 17.6 °F 9.3 °F 6.8 °F 63% 30.11 in 7.0 mi NNE 5.8 mph - N/A   Overcast
4:35 AM 17.6 °F 6.4 °F 6.8 °F 63% 30.11 in 10.0 mi NNE 9.2 mph - N/A   Overcast
4:55 AM 17.6 °F 6.4 °F 3.2 °F 53% 30.11 in 10.0 mi NNE 9.2 mph - N/A   Overcast
5:15 AM 17.6 °F 3.7 °F 3.2 °F 53% 30.12 in 10.0 mi NNE 13.8 mph 17.3 mph N/A   Overcast
5:35 AM 17.6 °F 5.0 °F 3.2 °F 53% 30.12 in 10.0 mi North 11.5 mph - N/A   Overcast
5:55 AM 17.6 °F 3.7 °F 3.2 °F 53% 30.13 in 10.0 mi North 13.8 mph 17.3 mph N/A   Overcast
6:15 AM 17.6 °F 5.0 °F 3.2 °F 53% 30.13 in 10.0 mi North 11.5 mph 17.3 mph N/A   Overcast
6:35 AM 17.6 °F 5.0 °F 1.4 °F 49% 30.15 in 10.0 mi North 11.5 mph - N/A   Mostly Cloudy
6:55 AM 17.6 °F 5.7 °F 1.4 °F 49% 30.16 in 10.0 mi North 10.4 mph 18.4 mph N/A   Mostly Cloudy
7:15 AM 17.6 °F 3.7 °F 1.4 °F 49% 30.17 in 10.0 mi North 13.8 mph 21.9 mph N/A   Scattered Clouds
7:35 AM 17.6 °F 7.3 °F 3.2 °F 53% 30.18 in 10.0 mi North 8.1 mph - N/A   Mostly Cloudy
7:55 AM 17.6 °F 5.7 °F 1.4 °F 49% 30.18 in 10.0 mi North 10.4 mph - N/A   Partly Cloudy
8:15 AM 17.6 °F 6.4 °F 3.2 °F 53% 30.19 in 10.0 mi North 9.2 mph 17.3 mph N/A   Clear
8:35 AM 19.4 °F 6.6 °F 3.2 °F 49% 30.20 in 10.0 mi NNW 12.7 mph 17.3 mph N/A   Clear
8:55 AM 19.4 °F 5.5 °F 1.4 °F 46% 30.21 in 10.0 mi North 15.0 mph 20.7 mph N/A   Clear
9:15 AM 19.4 °F 7.9 °F 1.4 °F 46% 30.22 in 10.0 mi NNW 10.4 mph 18.4 mph N/A   Clear
9:35 AM 19.4 °F 5.5 °F 1.4 °F 46% 30.23 in 10.0 mi North 15.0 mph 21.9 mph N/A   Clear
9:55 AM 19.4 °F 7.2 °F 1.4 °F 46% 30.25 in 10.0 mi NNW 11.5 mph 19.6 mph N/A   Clear
10:15 AM 21.2 °F 9.5 °F 1.4 °F 42% 30.25 in 10.0 mi NNW 11.5 mph 21.9 mph N/A   Clear
10:35 AM 21.2 °F 9.5 °F 1.4 °F 42% 30.27 in 10.0 mi North 11.5 mph 18.4 mph N/A   Clear
10:55 AM 21.2 °F 10.1 °F 1.4 °F 42% 30.27 in 10.0 mi NNW 10.4 mph 20.7 mph N/A   Clear
11:15 AM 23.0 °F 10.6 °F 1.4 °F 39% 30.27 in 10.0 mi NNW 13.8 mph 24.2 mph N/A   Partly Cloudy
11:35 AM 23.0 °F 12.4 °F 1.4 °F 39% 30.28 in 10.0 mi NNW 10.4 mph 23.0 mph N/A   Clear
11:55 AM 24.8 °F 14.6 °F 1.4 °F 36% 30.28 in 10.0 mi North 10.4 mph 18.4 mph N/A   Clear
12:15 PM 24.8 °F 13.4 °F 1.4 °F 36% 30.28 in 10.0 mi NNW 12.7 mph 23.0 mph N/A   Clear
12:35 PM 24.8 °F 12.9 °F 1.4 °F 36% 30.29 in 10.0 mi NNW 13.8 mph 19.6 mph N/A   Partly Cloudy
12:55 PM 24.8 °F 12.9 °F 1.4 °F 36% 30.29 in 10.0 mi NW 13.8 mph 19.6 mph N/A   Scattered Clouds
1:15 PM 24.8 °F 12.9 °F 1.4 °F 36% 30.29 in 10.0 mi NW 13.8 mph 21.9 mph N/A   Mostly Cloudy
1:35 PM 24.8 °F 12.9 °F 1.4 °F 36% 30.29 in 10.0 mi NW 13.8 mph 23.0 mph N/A   Partly Cloudy
1:55 PM 24.8 °F 14.0 °F 1.4 °F 36% 30.30 in 10.0 mi NNW 11.5 mph 21.9 mph N/A   Scattered Clouds
2:15 PM 24.8 °F 12.9 °F 1.4 °F 36% 30.30 in 10.0 mi NW 13.8 mph 24.2 mph N/A   Scattered Clouds
2:35 PM 24.8 °F 12.4 °F 3.2 °F 40% 30.31 in 10.0 mi NW 15.0 mph 24.2 mph N/A   Mostly Cloudy
2:55 PM 24.8 °F 12.9 °F 3.2 °F 40% 30.32 in 10.0 mi NW 13.8 mph 25.3 mph N/A   Scattered Clouds
3:15 PM 24.8 °F 11.9 °F 3.2 °F 40% 30.33 in 10.0 mi NW 16.1 mph 23.0 mph N/A   Partly Cloudy
3:35 PM 24.8 °F 12.4 °F 1.4 °F 36% 30.34 in 10.0 mi NNW 15.0 mph 20.7 mph N/A   Partly Cloudy
3:55 PM 24.8 °F 14.0 °F 1.4 °F 36% 30.35 in 10.0 mi NNW 11.5 mph 20.7 mph N/A   Partly Cloudy
4:15 PM 24.8 °F 13.4 °F -0.4 °F 34% 30.36 in 10.0 mi NNW 12.7 mph 23.0 mph N/A   Clear
4:35 PM 24.8 °F 12.9 °F -0.4 °F 34% 30.37 in 10.0 mi NW 13.8 mph 20.7 mph N/A   Clear
4:55 PM 24.8 °F 13.4 °F -0.4 °F 34% 30.38 in 10.0 mi NW 12.7 mph 21.9 mph N/A   Partly Cloudy
5:15 PM 24.8 °F 14.0 °F -0.4 °F 34% 30.39 in 10.0 mi NNW 11.5 mph 19.6 mph N/A   Clear
5:35 PM 24.8 °F 14.0 °F -2.2 °F 31% 30.40 in 10.0 mi NW 11.5 mph 27.6 mph N/A   Clear
5:55 PM 24.8 °F 14.0 °F -0.4 °F 34% 30.41 in 10.0 mi NNW 11.5 mph 20.7 mph N/A   Clear
6:15 PM 24.8 °F 14.6 °F -0.4 °F 34% 30.43 in 10.0 mi NNW 10.4 mph 21.9 mph N/A   Clear
6:35 PM 24.8 °F 13.4 °F -0.4 °F 34% 30.43 in 10.0 mi NW 12.7 mph 21.9 mph N/A   Clear
6:55 PM 24.8 °F 13.4 °F -0.4 °F 34% 30.44 in 10.0 mi NW 12.7 mph 21.9 mph N/A   Clear
7:15 PM 24.8 °F 13.4 °F -0.4 °F 34% 30.45 in 10.0 mi NNW 12.7 mph 17.3 mph N/A   Clear
7:35 PM 24.8 °F 15.3 °F -0.4 °F 34% 30.46 in 10.0 mi NW 9.2 mph 19.6 mph N/A   Clear
7:55 PM 24.8 °F 13.4 °F 1.4 °F 36% 30.46 in 10.0 mi NW 12.7 mph 18.4 mph N/A   Clear
8:35 PM 24.8 °F 14.0 °F 1.4 °F 36% 30.46 in 10.0 mi NNW 11.5 mph 19.6 mph N/A   Clear
8:55 PM 24.8 °F 14.6 °F 1.4 °F 36% 30.45 in 10.0 mi NW 10.4 mph 18.4 mph N/A   Clear
9:15 PM 24.8 °F 16.1 °F 1.4 °F 36% 30.46 in 10.0 mi NW 8.1 mph 16.1 mph N/A   Clear
9:35 PM 24.8 °F 13.4 °F 1.4 °F 36% 30.47 in 10.0 mi NW 12.7 mph 23.0 mph N/A   Clear
9:55 PM 24.8 °F 15.3 °F 1.4 °F 36% 30.46 in 10.0 mi NW 9.2 mph 20.7 mph N/A   Clear
10:15 PM 24.8 °F 14.0 °F 1.4 °F 36% 30.46 in 10.0 mi NW 11.5 mph 17.3 mph N/A   Clear
10:35 PM 24.8 °F 14.0 °F 1.4 °F 36% 30.47 in 10.0 mi NNW 11.5 mph 21.9 mph N/A   Clear
10:55 PM 24.8 °F 14.6 °F 1.4 °F 36% 30.47 in 10.0 mi NNW 10.4 mph 17.3 mph N/A   Clear
11:15 PM 24.8 °F 15.3 °F 1.4 °F 36% 30.47 in 10.0 mi NW 9.2 mph 19.6 mph N/A   Clear
11:35 PM 23.0 °F 12.4 °F 1.4 °F 39% 30.47 in 10.0 mi NNW 10.4 mph 17.3 mph N/A   Clear
11:55 PM 23.0 °F 14.7 °F 1.4 °F 39% 30.48 in 10.0 mi NW 6.9 mph - N/A   Clear